This is the latest recevied weather packets stored in our database for station/object YT1XN-8. If no packets are shown the sender has not sent any weather packets the latest 10 day(s).
| Time | Temp. | Humidity | Pressure | Rain* | Wind** | Luminosity | Snow |
|---|---|---|---|---|---|---|---|
| 1777559502 | 16.11° C | 44% | 1024.8 hPa | 0 mm | - | - | - |
| 1777559443 | 16.11° C | 44% | 1024.8 hPa | 0 mm | - | - | - |
| 1777558842 | 16.11° C | 44% | 1024.8 hPa | 0 mm | - | - | - |
| 1777558244 | 16.11° C | 43% | 1024.8 hPa | 0 mm | - | - | - |
| 1777558182 | 16.11° C | 43% | 1024.8 hPa | 0 mm | - | - | - |
| 1777557643 | 15.56° C | 47% | 1024.9 hPa | 0 mm | - | - | - |
| 1777557522 | 15° C | 44% | 1024.9 hPa | 0 mm | - | - | - |
| 1777557043 | 14.44° C | 49% | 1025 hPa | 0 mm | - | - | - |
| 1777556862 | 14.44° C | 45% | 1024.9 hPa | 0 mm | - | - | - |
| 1777556443 | 15° C | 46% | 1024.9 hPa | 0 mm | - | - | - |
| 1777556202 | 15.56° C | 44% | 1025 hPa | 0 mm | - | - | - |
| 1777555843 | 15° C | 47% | 1025.2 hPa | 0 mm | - | - | - |
| 1777555542 | 14.44° C | 49% | 1025.2 hPa | 0 mm | - | - | - |
| 1777555243 | 13.89° C | 46% | 1025.3 hPa | 0 mm | - | - | - |
| 1777554882 | 14.44° C | 46% | 1025.2 hPa | 0 mm | - | - | - |
| 1777554644 | 15° C | 45% | 1025.3 hPa | 0 mm | - | - | - |
| 1777554222 | 16.11° C | 43% | 1025.2 hPa | 0 mm | - | - | - |
| 1777554043 | 16.11° C | 44% | 1025.2 hPa | 0 mm | - | - | - |
| 1777553562 | 16.11° C | 47% | 1025.3 hPa | 0 mm | - | - | - |
| 1777553443 | 16.11° C | 47% | 1025.4 hPa | 0 mm | - | - | - |
| 1777552902 | 15.56° C | 48% | 1025.5 hPa | 0 mm | - | - | - |
| 1777552843 | 15.56° C | 47% | 1025.5 hPa | 0 mm | - | - | - |
| 1777552242 | 15° C | 49% | 1025.6 hPa | 0 mm | - | - | - |
| 1777551644 | 14.44° C | 50% | 1025.5 hPa | 0 mm | - | - | - |
| 1777551582 | 14.44° C | 48% | 1025.6 hPa | 0 mm | - | - | - |
* Rain latest hour (hover to see other rain measurements)
** Current wind speed in m/s (hover to see current wind gust speed)